Weather History for Shemya, AK

Change the Weather History Date:

Wednesday, November 28, 2012

  Actual Average Record
Temperature  
Mean Temperature 40 °F -  
Max Temperature 42 °F 36 °F 44 °F (1960)
Min Temperature 39 °F 30 °F 18 °F (1969)
Degree Days  
Heating Degree Days 24    
Moisture  
Dew Point 40 °F    
Average Humidity 96    
Maximum Humidity 100    
Minimum Humidity 57    
Precipitation  
Precipitation 0.00 in - - ()
Sea Level Pressure  
Sea Level Pressure 29.91 in    
Wind  
Wind Speed 33 mph (ESE)    
Max Wind Speed 45 mph    
Max Gust Speed 55 mph    
Visibility 4 miles    
Events Rain    
Averages and records for this station are not official NWS values.
T = Trace of Precipitation, MM = Missing Value Source: NWS Daily Summary

Daily Weather History Graph

Daily Weather History Graph

Search for Another Location

Airport:

Trip Planner

Search our weather history database for the weather conditions in past years. The results will help you decide how hot, cold, wet, or windy it might be!

Date:

Astronomy

Nov. 27, 2012 Rise Set
Actual Time 10:07 AM HAST 6:14 PM HAST
Civil Twilight 9:27 AM HAST 6:54 PM HAST
Nautical Twilight 8:44 AM HAST 7:38 PM HAST
Astronomical Twilight 8:03 AM HAST 8:19 PM HAST
Moon 6:40 PM HAST (11/28) 10:21 AM HAST (11/28)
Length of Visible Light 9h 27m
Length of Day
8h 06m
Full, 100% of the Moon is Illuminated
Nov 28
Full
Dec 6
Last Quarter
Dec 12
New
Dec 19
First Quarter
Dec 28
Full

Hourly Weather History & Observations

Time (HAST) Temp. Windchill Dew Point Humidity Pressure Visibility Wind Dir Wind Speed Gust Speed Precip Events Conditions
12:56 AM 39.9 °F 27.0 °F 35.1 °F 83% 30.01 in 10.0 mi ESE 39.1 mph 51.8 mph N/A   Overcast
1:56 AM 42.1 °F 29.5 °F 32.0 °F 67% 29.97 in 10.0 mi ESE 42.6 mph 55.2 mph N/A   Overcast
2:56 AM 39.9 °F 26.2 °F 37.0 °F 89% 29.96 in 9.0 mi ESE 44.9 mph 50.6 mph N/A   Overcast
3:56 AM 41.0 °F 28.8 °F 37.0 °F 86% 29.95 in 8.0 mi ESE 36.8 mph 51.8 mph N/A   Overcast
4:24 AM 39.2 °F 25.8 °F 37.4 °F 93% 29.96 in 5.0 mi ESE 40.3 mph 51.8 mph N/A   Overcast
4:56 AM 41.0 °F 28.5 °F 37.9 °F 89% 29.95 in 7.0 mi ESE 39.1 mph 47.2 mph N/A   Overcast
5:56 AM 39.9 °F 27.6 °F 39.0 °F 97% 29.96 in 4.0 mi ESE 34.5 mph 43.7 mph N/A   Overcast
6:03 AM 39.2 °F 26.6 °F 39.2 °F 100% 29.94 in - ESE 34.5 mph 43.7 mph N/A   Overcast
6:14 AM 39.2 °F 27.0 °F 39.2 °F 100% 29.95 in - ESE 32.2 mph 41.4 mph N/A   Overcast
6:41 AM 39.2 °F 27.4 °F 39.2 °F 100% 29.93 in - ESE 29.9 mph 40.3 mph N/A   Overcast
6:56 AM 39.9 °F 27.8 °F 39.9 °F 100% 29.93 in 3.0 mi ESE 33.4 mph 40.3 mph N/A   Overcast
7:20 AM 39.2 °F 27.2 °F - N/A% 29.92 in 4.0 mi ESE 31.1 mph 40.3 mph N/A   Haze
7:52 AM 39.2 °F 27.2 °F - N/A% 29.92 in 4.0 mi ESE 31.1 mph 39.1 mph N/A   Haze
7:56 AM 39.9 °F 27.5 °F - N/A% 29.92 in 4.0 mi ESE 35.7 mph 44.9 mph N/A   Haze
8:56 AM 39.9 °F 27.3 °F 39.9 °F 100% 29.91 in 4.0 mi ESE 36.8 mph 42.6 mph N/A   Overcast
9:46 AM 39.2 °F 26.8 °F 39.2 °F 100% 29.91 in 4.0 mi ESE 33.4 mph 38.0 mph N/A   Overcast
9:56 AM 39.9 °F 27.6 °F 39.9 °F 100% 29.92 in 4.0 mi ESE 34.5 mph 40.3 mph N/A   Overcast
10:56 AM 39.9 °F 28.4 °F 39.9 °F 100% 29.91 in 4.0 mi ESE 29.9 mph 36.8 mph N/A   Overcast
11:09 AM 41.0 °F 29.7 °F 41.0 °F 100% 29.90 in 2.5 mi ESE 31.1 mph 36.8 mph N/A   Overcast
11:25 AM 41.0 °F 29.5 °F 41.0 °F 100% 29.90 in - ESE 32.2 mph 36.8 mph N/A   Overcast
11:56 AM 41.0 °F 29.7 °F 41.0 °F 100% 29.91 in 3.0 mi ESE 31.1 mph 38.0 mph N/A   Overcast
12:14 PM 41.0 °F 30.0 °F 41.0 °F 100% 29.90 in - ESE 28.8 mph 38.0 mph N/A   Overcast
12:56 PM 41.0 °F 30.5 °F 41.0 °F 100% 29.90 in 3.0 mi ESE 26.5 mph 34.5 mph N/A   Overcast
1:56 PM 41.0 °F 29.7 °F 41.0 °F 100% 29.89 in 2.5 mi ESE 31.1 mph - N/A   Overcast
2:11 PM 41.0 °F 30.2 °F 41.0 °F 100% 29.88 in - ESE 27.6 mph 33.4 mph N/A   Overcast
2:42 PM 41.0 °F 30.7 °F 41.0 °F 100% 29.87 in 2.5 mi ESE 25.3 mph - N/A   Overcast
2:56 PM 41.0 °F 30.2 °F 41.0 °F 100% 29.87 in 3.0 mi ESE 27.6 mph 33.4 mph N/A   Overcast
3:48 PM 41.0 °F 30.7 °F 41.0 °F 100% 29.87 in 2.5 mi ESE 25.3 mph - N/A   Overcast
3:56 PM 41.0 °F 30.9 °F 41.0 °F 100% 29.87 in 2.0 mi ESE 24.2 mph 31.1 mph N/A   Overcast
4:07 PM 41.0 °F 30.5 °F 41.0 °F 100% 29.87 in - ESE 26.5 mph 32.2 mph N/A   Overcast
4:48 PM 41.0 °F 30.7 °F 41.0 °F 100% 29.86 in 2.5 mi ESE 25.3 mph 31.1 mph N/A   Overcast
4:56 PM 41.0 °F 30.7 °F 41.0 °F 100% 29.87 in 2.5 mi ESE 25.3 mph - N/A   Overcast
5:33 PM 41.0 °F 31.6 °F 41.0 °F 100% 29.87 in - ESE 20.7 mph - N/A   Overcast
5:44 PM 42.8 °F 33.3 °F 41.0 °F 93% 29.87 in 2.5 mi ESE 24.2 mph - N/A   Overcast
5:56 PM 41.0 °F 30.5 °F 41.0 °F 100% 29.88 in 3.0 mi ESE 26.5 mph - N/A   Overcast
6:38 PM 42.8 °F 33.3 °F 41.0 °F 93% 29.89 in 3.0 mi ESE 24.2 mph - N/A   Overcast
6:54 PM 42.8 °F 33.8 °F 42.8 °F 100% 29.89 in 2.5 mi ESE 21.9 mph - N/A   Overcast
6:56 PM 42.1 °F 32.8 °F 42.1 °F 100% 29.89 in 2.5 mi ESE 21.9 mph - N/A   Overcast
7:10 PM 42.8 °F 33.5 °F 42.8 °F 100% 29.89 in - ESE 23.0 mph - N/A   Overcast
7:56 PM 42.1 °F 33.3 °F 42.1 °F 100% 29.89 in 3.0 mi ESE 19.6 mph - N/A   Overcast
8:41 PM 42.8 °F 34.5 °F 42.8 °F 100% 29.89 in 2.5 mi ESE 18.4 mph - N/A   Overcast
8:56 PM 42.1 °F 33.6 °F 42.1 °F 100% 29.90 in 2.5 mi ESE 18.4 mph - N/A   Overcast
9:24 PM 42.8 °F 34.5 °F 42.8 °F 100% 29.89 in - ESE 18.4 mph - N/A Rain Light Rain
9:56 PM 42.1 °F 33.6 °F 42.1 °F 100% 29.90 in 3.0 mi ESE 18.4 mph - N/A Rain Light Rain
10:56 PM 42.1 °F 34.2 °F 42.1 °F 100% 29.90 in 3.0 mi ESE 16.1 mph - N/A   Overcast
11:38 PM 42.8 °F 35.1 °F 42.8 °F 100% 29.90 in 2.5 mi ESE 16.1 mph - N/A   Overcast
11:56 PM 42.1 °F 34.5 °F 42.1 °F 100% 29.91 in 2.5 mi ESE 15.0 mph - N/A Rain Light Rain